Index of /chromium/src/third_party/blink/web_tests/editing/deleting/
../
2610675-1-expected.txt 27-Aug-2026 18:39 545
2610675-1.html 27-Aug-2026 18:39 1209
2610675-2-expected.txt 27-Aug-2026 18:39 462
2610675-2.html 27-Aug-2026 18:39 1129
2610675-3-expected.txt 27-Aug-2026 18:39 237
2610675-3.html 27-Aug-2026 18:39 952
460938-expected.txt 27-Aug-2026 18:39 77
460938.html 27-Aug-2026 18:39 542
4866671-expected.txt 27-Aug-2026 18:39 191
4866671.html 27-Aug-2026 18:39 681
4875189-expected.txt 27-Aug-2026 18:39 218
4875189.html 27-Aug-2026 18:39 828
4916235-1-expected.txt 27-Aug-2026 18:39 192
4916235-1.html 27-Aug-2026 18:39 596
4922367.html 27-Aug-2026 18:39 613
5032066.html 27-Aug-2026 18:39 1440
5115601.html 27-Aug-2026 18:39 840
5144139-2.html 27-Aug-2026 18:39 908
5168598-expected.txt 27-Aug-2026 18:39 270
5168598.html 27-Aug-2026 18:39 837
5206311-2-expected.txt 27-Aug-2026 18:39 1408
5206311-2.html 27-Aug-2026 18:39 1932
5272440.html 27-Aug-2026 18:39 479
5290534-expected.txt 27-Aug-2026 18:39 171
5290534.html 27-Aug-2026 18:39 811
5300379.html 27-Aug-2026 18:39 678
5369009.html 27-Aug-2026 18:39 907
5433862-1-expected.txt 27-Aug-2026 18:39 110
5433862-1.html 27-Aug-2026 18:39 602
5495723-expected.txt 27-Aug-2026 18:39 209
5495723.html 27-Aug-2026 18:39 796
5847330-1-expected.txt 27-Aug-2026 18:39 160
5847330-1.html 27-Aug-2026 18:39 627
5847330-2-expected.txt 27-Aug-2026 18:39 91
5847330-2.html 27-Aug-2026 18:39 531
5890684-expected.txt 27-Aug-2026 18:39 157
5890684.html 27-Aug-2026 18:39 621
6026335.html 27-Aug-2026 18:39 1392
backspace-at-table-cell-beginning-expected.txt 27-Aug-2026 18:39 897
backspace-at-table-cell-beginning.html 27-Aug-2026 18:39 894
backspace-avoid-preceding-style-expected.txt 27-Aug-2026 18:39 62
backspace-avoid-preceding-style.html 27-Aug-2026 18:39 978
backspace-merge-into-block.html 27-Aug-2026 18:39 1791
backspace-merge-into-list-item.html 27-Aug-2026 18:39 902
backspace-merge-two-paragraphs.html 27-Aug-2026 18:39 893
backspace_after_contenteditable_false_elements...> 27-Aug-2026 18:39 1505
delete-3608430-fix.html 27-Aug-2026 18:39 673
delete-3800834-fix.html 27-Aug-2026 18:39 669
delete-3928305-fix.html 27-Aug-2026 18:39 452
delete-across-blocks-with-uneditable-elements.html 27-Aug-2026 18:39 2274
delete-across-editable-content-boundaries-1-exp..> 27-Aug-2026 18:39 217
delete-across-editable-content-boundaries-1.html 27-Aug-2026 18:39 664
delete-across-editable-content-boundaries-2.html 27-Aug-2026 18:39 1061
delete-across-editable-content-boundaries-3.html 27-Aug-2026 18:39 992
delete-all-text-in-text-field-assertion.html 27-Aug-2026 18:39 504
delete-and-cleanup-expected.txt 27-Aug-2026 18:39 479
delete-and-cleanup.html 27-Aug-2026 18:39 1602
delete-and-undo.html 27-Aug-2026 18:39 522
delete-at-paragraph-boundaries-011.html 27-Aug-2026 18:39 607
delete-at-start-or-end.html 27-Aug-2026 18:39 535
delete-before-block-image-1-expected.txt 27-Aug-2026 18:39 265
delete-before-block-image-1.html 27-Aug-2026 18:39 870
delete-before-block-image-2-expected.txt 27-Aug-2026 18:39 106
delete-before-block-image-2.html 27-Aug-2026 18:39 829
delete-before-block-table-expected.txt 27-Aug-2026 18:39 249
delete-before-block-table.html 27-Aug-2026 18:39 845
delete-block-contents-004-expected.txt 27-Aug-2026 18:39 125
delete-block-contents-004.html 27-Aug-2026 18:39 980
delete-block-contents.html 27-Aug-2026 18:39 766
delete-block-merge-contents-010.html 27-Aug-2026 18:39 1139
delete-block-merge-contents-025-expected.txt 27-Aug-2026 18:39 148
delete-block-merge-contents-025.html 27-Aug-2026 18:39 455
delete-block-table.html 27-Aug-2026 18:39 2414
delete-blockquote-large-offsets-expected.txt 27-Aug-2026 18:39 160
delete-blockquote-large-offsets.html 27-Aug-2026 18:39 785
delete-br-001-expected.txt 27-Aug-2026 18:39 758
delete-br-001.html 27-Aug-2026 18:39 1216
delete-br-011.html 27-Aug-2026 18:39 549
delete-br-012-expected.txt 27-Aug-2026 18:39 390
delete-br-012.html 27-Aug-2026 18:39 921
delete-br-013.html 27-Aug-2026 18:39 757
delete-br-after-image-expected.txt 27-Aug-2026 18:39 273
delete-br-after-image.html 27-Aug-2026 18:39 879
delete-br-in-last-table-cell-expected.txt 27-Aug-2026 18:39 1290
delete-br-in-last-table-cell.html 27-Aug-2026 18:39 819
delete-button-background-image-none-expected.txt 27-Aug-2026 18:39 38
delete-button-background-image-none.html 27-Aug-2026 18:39 263
delete-character-001.html 27-Aug-2026 18:39 392
delete-character-002-expected.txt 27-Aug-2026 18:39 1448
delete-character-002.html 27-Aug-2026 18:39 1235
delete-character-003-expected.txt 27-Aug-2026 18:39 1892
delete-character-003.html 27-Aug-2026 18:39 1859
delete-contiguous-ws-001.html 27-Aug-2026 18:39 455
delete-element-with-fully-selected.html 27-Aug-2026 18:39 1730
delete-empty-table-expected.txt 27-Aug-2026 18:39 243
delete-empty-table.html 27-Aug-2026 18:39 1118
delete-first-list-item.html 27-Aug-2026 18:39 686
delete-hr.html 27-Aug-2026 18:39 522
delete-inline-br-expected.txt 27-Aug-2026 18:39 186
delete-inline-br.html 27-Aug-2026 18:39 1219
delete-inserts-br-after-button-expected.txt 27-Aug-2026 18:39 177
delete-inserts-br-after-button.html 27-Aug-2026 18:39 676
delete-last-char-in-table-expected.txt 27-Aug-2026 18:39 344
delete-last-char-in-table.html 27-Aug-2026 18:39 865
delete-leading-ws-001.html 27-Aug-2026 18:39 400
delete-ligature-001.html 27-Aug-2026 18:39 589
delete-ligature-002.html 27-Aug-2026 18:39 648
delete-ligature-003.html 27-Aug-2026 18:39 970
delete-line-001.html 27-Aug-2026 18:39 475
delete-line-002.html 27-Aug-2026 18:39 482
delete-line-003.html 27-Aug-2026 18:39 517
delete-line-004.html 27-Aug-2026 18:39 594
delete-line-005.html 27-Aug-2026 18:39 538
delete-line-006.html 27-Aug-2026 18:39 552
delete-line-007.html 27-Aug-2026 18:39 529
delete-line-008.html 27-Aug-2026 18:39 529
delete-line-009.html 27-Aug-2026 18:39 560
delete-line-010.html 27-Aug-2026 18:39 488
delete-line-011.html 27-Aug-2026 18:39 539
delete-line-012.html 27-Aug-2026 18:39 539
delete-line-015.html 27-Aug-2026 18:39 790
delete-line-016.html 27-Aug-2026 18:39 961
delete-line-017.html 27-Aug-2026 18:39 754
delete-line-break-before-underlined-content-exp..> 27-Aug-2026 18:39 280
delete-line-break-before-underlined-content.html 27-Aug-2026 18:39 708
delete-line-break-between-paragraphs-with-same-..> 27-Aug-2026 18:39 286
delete-line-break-between-paragraphs-with-same-..> 27-Aug-2026 18:39 575
delete-list-items-in-table-cell.html 27-Aug-2026 18:39 1742
delete-listitem-003-expected.txt 27-Aug-2026 18:39 118
delete-listitem-003.html 27-Aug-2026 18:39 903
delete-many-lines-of-text.html 27-Aug-2026 18:39 870
delete-mixed-editable-content-001-expected.txt 27-Aug-2026 18:39 268
delete-mixed-editable-content-001.html 27-Aug-2026 18:39 643
delete-non-static-position-expected.txt 27-Aug-2026 18:39 99
delete-non-static-position.html 27-Aug-2026 18:39 922
delete-preserves-inline-structure.html 27-Aug-2026 18:39 2326
delete-selection-001.html 27-Aug-2026 18:39 411
delete-selection-with-non-editable-end-crash-ex..> 27-Aug-2026 18:39 29
delete-selection-with-non-editable-end-crash.html 27-Aug-2026 18:39 537
delete-start-block-expected.txt 27-Aug-2026 18:39 119
delete-start-block.html 27-Aug-2026 18:39 463
delete-surrogatepair-expected.txt 27-Aug-2026 18:39 152
delete-surrogatepair.html 27-Aug-2026 18:39 1613
delete-svg-001-expected.txt 27-Aug-2026 18:39 93
delete-svg-001.html 27-Aug-2026 18:39 1148
delete-table-cell-contents-expected.txt 27-Aug-2026 18:39 410
delete-table-cell-contents.html 27-Aug-2026 18:39 1026
delete-to-end-of-paragraph.html 27-Aug-2026 18:39 1313
delete-to-select-table.html 27-Aug-2026 18:39 691
delete-uneditable-style-expected.txt 27-Aug-2026 18:39 104
delete-uneditable-style.html 27-Aug-2026 18:39 649
delete-word-from-unstyled-div-expected.txt 27-Aug-2026 18:39 156
delete-word-from-unstyled-div.html 27-Aug-2026 18:39 728
delete_after_block_image.html 27-Aug-2026 18:39 1826
delete_after_span_ws.html 27-Aug-2026 18:39 730
delete_all_contents_with_link_crash.html 27-Aug-2026 18:39 554
delete_and_retain_block.html 27-Aug-2026 18:39 1160
delete_at_end_of_cell.html 27-Aug-2026 18:39 774
delete_at_paragraph_boundaries.html 27-Aug-2026 18:39 6404
delete_block_merge_contents_1.html 27-Aug-2026 18:39 3672
delete_block_merge_empty_line.html 27-Aug-2026 18:39 1979
delete_block_merge_end_of_line.html 27-Aug-2026 18:39 1971
delete_block_merge_whitespace.html 27-Aug-2026 18:39 3437
delete_br.html 27-Aug-2026 18:39 1243
delete_br_after_block.html 27-Aug-2026 18:39 926
delete_by_word.html 27-Aug-2026 18:39 1834
delete_cell_contents.html 27-Aug-2026 18:39 492
delete_image.html 27-Aug-2026 18:39 1621
delete_in_details_crash.html 27-Aug-2026 18:39 644
delete_keep_style.html 27-Aug-2026 18:39 588
delete_line_end_ws.html 27-Aug-2026 18:39 1643
delete_link_at_end_of_sentence.html 27-Aug-2026 18:39 615
delete_list_item.html 27-Aug-2026 18:39 1961
delete_map_area.html 27-Aug-2026 18:39 677
delete_only_secondlast_item.html 27-Aug-2026 18:39 748
delete_range_before_space.html 27-Aug-2026 18:39 643
delete_reply_test.html 27-Aug-2026 18:39 1787
delete_select_all.html 27-Aug-2026 18:39 1732
delete_selection_contains_table_row.html 27-Aug-2026 18:39 2385
delete_selection_ends_inside_empty_table_cell.html 27-Aug-2026 18:39 1272
delete_tab.html 27-Aug-2026 18:39 1622
delete_then_nbsp.html 27-Aug-2026 18:39 739
delete_to_empty_row.html 27-Aug-2026 18:39 1049
delete_trailing_ws.html 27-Aug-2026 18:39 824
delete_with_enclosing_block.html 27-Aug-2026 18:39 599
delete_with_redundant_space.html 27-Aug-2026 18:39 847
delete_with_unfocused_selection.html 27-Aug-2026 18:39 1347
delete_ws_fixup.html 27-Aug-2026 18:39 1155
deleting-line-break-preserves-underline-color-e..> 27-Aug-2026 18:39 484
deleting-line-break-preserves-underline-color.html 27-Aug-2026 18:39 760
display-table.html 27-Aug-2026 18:39 1094
forward-delete-at-table-cell-ending-expected.txt 27-Aug-2026 18:39 924
forward-delete-at-table-cell-ending.html 27-Aug-2026 18:39 916
forward-delete-empty-table-cell-expected.txt 27-Aug-2026 18:39 386
forward-delete-empty-table-cell.html 27-Aug-2026 18:39 718
forward-delete-key-expected.txt 27-Aug-2026 18:39 42
forward-delete-key.html 27-Aug-2026 18:39 770
forward-delete.html 27-Aug-2026 18:39 631
in-visibly-empty-root-expected.txt 27-Aug-2026 18:39 142
in-visibly-empty-root.html 27-Aug-2026 18:39 963
list-item-1.html 27-Aug-2026 18:39 725
listify-paragraph-inside-table-cell.html 27-Aug-2026 18:39 2017
maintain-style-after-delete-expected.txt 27-Aug-2026 18:39 656
maintain-style-after-delete.html 27-Aug-2026 18:39 1329
merge-at-end-of-document-expected.txt 27-Aug-2026 18:39 213
merge-at-end-of-document.html 27-Aug-2026 18:39 1097
merge-different-styles.html 27-Aug-2026 18:39 665
merge-div-from-span-with-style-expected.txt 27-Aug-2026 18:39 277
merge-div-from-span-with-style.html 27-Aug-2026 18:39 751
merge-div-with-inline-style-expected.txt 27-Aug-2026 18:39 242
merge-div-with-inline-style.html 27-Aug-2026 18:39 720
merge-endOfParagraph.html 27-Aug-2026 18:39 1232
merge-list-items-in-same-list-expected.txt 27-Aug-2026 18:39 104
merge-list-items-in-same-list.html 27-Aug-2026 18:39 388
merge-lists-expected.txt 27-Aug-2026 18:39 299
merge-lists.html 27-Aug-2026 18:39 674
merge-no-br.html 27-Aug-2026 18:39 1016
merge-paragraph-containing-noneditable.html 27-Aug-2026 18:39 764
merge-paragraph-from-address-expected.txt 27-Aug-2026 18:39 478
merge-paragraph-from-address.html 27-Aug-2026 18:39 622
merge-paragraph-from-listing-expected.txt 27-Aug-2026 18:39 478
merge-paragraph-from-listing.html 27-Aug-2026 18:39 622
merge-paragraph-from-span-with-multiple-text-de..> 27-Aug-2026 18:39 263
merge-paragraph-from-span-with-multiple-text-de..> 27-Aug-2026 18:39 732
merge-paragraph-from-span-with-style-expected.txt 27-Aug-2026 18:39 274
merge-paragraph-from-span-with-style.html 27-Aug-2026 18:39 746
merge-paragraph-into-blockquote.html 27-Aug-2026 18:39 595
merge-paragraph-into-pre.html 27-Aug-2026 18:39 515
merge-paragraph-with-style-from-rule-expected.txt 27-Aug-2026 18:39 312
merge-paragraph-with-style-from-rule.html 27-Aug-2026 18:39 920
merge-paragraphs-with-transparent-background-ex..> 27-Aug-2026 18:39 275
merge-paragraphs-with-transparent-background.html 27-Aug-2026 18:39 804
merge-unrendered-space.html 27-Aug-2026 18:39 627
merge-whitespace-pre.html 27-Aug-2026 18:39 472
merge_into_empty_block.html 27-Aug-2026 18:39 649
merge_paragraph_from_h6.html 27-Aug-2026 18:39 1383
merge_paragraph_from_p_with_style.html 27-Aug-2026 18:39 2056
merge_paragraph_into_h1.html 27-Aug-2026 18:39 1735
merge_paragraph_with_presentation_elements.html 27-Aug-2026 18:39 1601
merge_span_with_style_after_backspace_having_co..> 27-Aug-2026 18:39 860
merge_span_with_style_after_forwarddelete_havin..> 27-Aug-2026 18:39 872
non-smart-delete.html 27-Aug-2026 18:39 410
paragraph-in-preserveNewline.html 27-Aug-2026 18:39 1141
password-delete-contents-expected.txt 27-Aug-2026 18:39 329
password-delete-contents.html 27-Aug-2026 18:39 881
paste-with-transparent-background-color-expecte..> 27-Aug-2026 18:39 593
paste-with-transparent-background-color.html 27-Aug-2026 18:39 1073
pruning_after_merge.html 27-Aug-2026 18:39 1221
removeNodeCommand-assert-expected.txt 27-Aug-2026 18:39 206
removeNodeCommand-assert.html 27-Aug-2026 18:39 667
replace_text_in_node_preserving_markers_crash.html 27-Aug-2026 18:39 691
skip-virama-001.html 27-Aug-2026 18:39 607
smart-delete-001.html 27-Aug-2026 18:39 1077
smart-delete-002.html 27-Aug-2026 18:39 1076
smart-delete-003.html 27-Aug-2026 18:39 1620
smart-delete-004.html 27-Aug-2026 18:39 1619
smart-delete-across-editable-boundaries-2-expec..> 27-Aug-2026 18:39 220
smart-delete-across-editable-boundaries-2.html 27-Aug-2026 18:39 726
smart-delete-across-editable-boundaries.html 27-Aug-2026 18:39 618
smart_editing_disabled.html 27-Aug-2026 18:39 799
table-cells.html 27-Aug-2026 18:39 768
transpose-empty.html 27-Aug-2026 18:39 345
type-delete-after-quote.html 27-Aug-2026 18:39 853
typing_one_character_delete_crash.html 27-Aug-2026 18:39 659
whitespace-pre-1.html 27-Aug-2026 18:39 1376